This is the latest recevied weather packets stored in our database for station/object HK6RM-19. If no packets are shown the sender has not sent any weather packets the latest 10 day(s).
| Time | Temp. | Humidity | Pressure | Rain* | Wind** | Luminosity | Snow |
|---|---|---|---|---|---|---|---|
| 1787761312 | 20.56° C | 68% | 1012 hPa | 0 mm | - | - | - |
| 1787760471 | 20.56° C | 68% | 1012 hPa | 0 mm | - | - | - |
| 1787759631 | 20.56° C | 68% | 1012 hPa | 0 mm | - | - | - |
| 1787758790 | 20° C | 69% | 1013 hPa | 0 mm | - | - | - |
| 1787757950 | 20° C | 69% | 1013 hPa | 0 mm | - | - | - |
| 1787757109 | 20° C | 69% | 1013 hPa | 0 mm | - | - | - |
| 1787756269 | 19.44° C | 72% | 1013 hPa | 0 mm | - | - | - |
| 1787755428 | 18.33° C | 68% | 1013 hPa | 0 mm | - | - | - |
| 1787754588 | 18.33° C | 68% | 1014 hPa | 0 mm | - | - | - |
| 1787753747 | 18.33° C | 68% | 1014 hPa | 0 mm | - | - | - |
| 1787752907 | 18.33° C | 68% | 1014 hPa | 0 mm | - | - | - |
| 1787752067 | 18.33° C | 68% | 1014 hPa | 0 mm | - | - | - |
| 1787751226 | 18.33° C | 68% | 1014 hPa | 0 mm | - | - | - |
| 1787750386 | 16.11° C | 77% | 1014 hPa | 0 mm | - | - | - |
| 1787749545 | 16.11° C | 77% | 1014 hPa | 0 mm | - | - | - |
| 1787748705 | 16.11° C | 77% | 1014 hPa | 0 mm | - | - | - |
| 1787747864 | 15° C | 77% | 1014 hPa | 0 mm | - | - | - |
| 1787747024 | 15° C | 77% | 1015 hPa | 0 mm | - | - | - |
| 1787746183 | 15.56° C | 77% | 1015 hPa | 0 mm | - | - | - |
| 1787745343 | 15.56° C | 77% | 1015 hPa | 0 mm | - | - | - |
| 1787744502 | 11.67° C | 69% | 1015 hPa | 0 mm | - | - | - |
| 1787743662 | 11.67° C | 69% | 1015 hPa | 0 mm | - | - | - |
| 1787742821 | 11.67° C | 69% | 1015 hPa | 0 mm | - | - | - |
| 1787741981 | 11.67° C | 69% | 1015 hPa | 0 mm | - | - | - |
| 1787741140 | 11.67° C | 69% | 1015 hPa | 0 mm | - | - | - |
* Rain latest hour (hover to see other rain measurements)
** Current wind speed in m/s (hover to see current wind gust speed)